Погода в Целинном

Россия / Алтайский край     53°04′40″N   85°39′30″E
темп.,
°C
ветер,
м/с
пор.,
м/с
влажн.,
%
обл.,
%
осадки,
мм/ч
давл.,
гПа
погр.,
м
4 июля, пн
пн401:00+11ю228912 0.3 100812
04:00+11юв11885 0.0 100710
07:00+13вюв238866 0.0 100792
10:00+18юв227187 0.0 1007424
13:00+21юв34585 0.0 1006913
16:00+23ююз23485 0.0 10041812
19:00+23в34615 0.0 1003164
22:00+16в336121 0.0 100222
5 июля, вт
вт501:00+14в337198 0.0 100225
04:00+13всв237135 0.0 100021
07:00+15в3573100 0.0 99898
10:00+20вюв3460100 0.0 997318
13:00+24ю3554100 0.0 997725
16:00+22з4567100 0.3 997626
19:00+14юв2292100 22.3 100052
22:00+15ю71494100 0.0 1000475
6 июля, ср
ср601:00+13ю6149028 0.1 1000223
04:00+13ююз41092100 0.0 1002203
07:00+14ююз41289100 0.2 1003405
10:00+17юз81184100 0.4 1004917
13:00+18юз8138276 1.2 10051259
16:00+18зюз91476100 0.8 10061419
19:00+14юз61192100 1.1 1007729
22:00+13ююз51196100 0.2 1008513
7 июля, чт
чт701:00+14ю51096100 2.6 1007446
04:00+13ююз61596100 0.5 1006622
07:00+14зюз6119687 3.5 1007582
10:00+15зюз5998100 0.4 1008671
13:00+15зюз479796 0.9 1009507
16:00+19зюз5684100 0.9 10091009
19:00+18з248750 2.1 1009422
22:00+15зсз22947 1.9 101012
8 июля, пт
пт801:00+13с22977 1.9 101034
04:00+11св33965 0.0 101054
07:00+13св24946 0.0 1010118
10:00+17св34764 0.0 1010536
13:00+21ссв33644 0.0 10081031
16:00+22ссв45613 0.0 10071310
19:00+21с47695 0.0 1006748
22:00+15св3891100 0.1 1007163